Location: lozzo di cadore
(46.4899°N, 12.4508°E)
Time: 13:07:35
(UTC+02:00)

Envisat - Pass Details

Date: 05 May 2025
Orbit: 761 x 763 km, 98.3° (Epoch: 14 May)

Event Time Altitude Azimuth Distance (km) Brightness Sun altitude
Rises 02:39:23 0° 32° (NNE) 3,232 7.6 -23.9°
Reaches altitude 10° 02:42:58 10° 58° (ENE) 2,300 6.2 -23.6°
Maximum altitude 02:45:26 14° 88° (E) 2,059 5.5 -23.4°
Drops below altitude 10° 02:47:53 10° 117° (ESE) 2,291 5.4 -23.2°
Enters shadow 02:49:26 - 131° (SE) 2,635 5.6 -23.1°
